Time,TemperatureF,DewpointF,PressureIn,WindDirection,WindDirectionDegrees,WindSpeedMPH,WindSpeedGustMPH,Humidity,HourlyPrecipIn,Conditions,Clouds,dailyrainin,SoftwareType,DateUTC
2013-07-03 19:30:00,32.0,39.4,29.72,North,0,0.0,2.0,2,0.00,,FEW240,0.00,VWS V14.01,2013-07-04 01:30:00,
2013-07-03 20:16:00,32.0,39.4,29.72,North,0,0.0,2.0,2,0.00,,FEW240,0.00,VWS V14.01,2013-07-04 02:16:00,
2013-07-03 20:17:00,32.0,37.7,29.73,NW,319,0.0,0.0,0,0.00,,FEW240,0.00,VWS V14.01,2013-07-04 02:17:00,
2013-07-03 20:18:00,32.0,38.7,29.73,SW,219,0.0,1.0,0,0.00,,FEW240,0.00,VWS V14.01,2013-07-04 02:18:00,
2013-07-03 20:19:00,32.0,38.7,29.73,SW,219,0.0,1.0,0,0.00,,FEW240,0.00,VWS V14.01,2013-07-04 02:19:00,
2013-07-03 20:20:00,32.0,38.7,29.73,West,265,0.0,1.0,0,0.00,,FEW240,0.00,VWS V14.01,2013-07-04 02:20:00,
2013-07-03 20:21:00,32.0,37.7,29.73,SW,225,0.0,1.0,0,0.00,,FEW240,0.00,VWS V14.01,2013-07-04 02:21:00,
2013-07-03 20:22:00,32.0,38.9,29.73,WSW,245,0.0,1.0,0,0.00,,FEW240,0.00,VWS V14.01,2013-07-04 02:22:00,
2013-07-03 20:23:00,32.0,38.9,29.73,West,281,0.0,1.0,0,0.00,,FEW240,0.00,VWS V14.01,2013-07-04 02:23:00,
2013-07-03 20:24:00,32.0,38.9,29.73,NNW,338,3.0,3.0,0,0.00,,FEW240,0.00,VWS V14.01,2013-07-04 02:24:00,
2013-07-03 20:25:00,32.0,37.9,29.73,West,274,0.0,3.0,0,0.00,,FEW240,0.00,VWS V14.01,2013-07-04 02:25:00,
2013-07-03 20:26:00,32.0,38.9,29.73,WSW,239,0.0,3.0,0,0.00,,FEW240,0.00,VWS V14.01,2013-07-04 02:26:00,
2013-07-03 20:27:00,32.0,38.9,29.73,WSW,245,0.0,3.0,0,0.00,,FEW240,0.00,VWS V14.01,2013-07-04 02:27:00,
2013-07-03 20:28:00,32.0,38.9,29.73,West,259,0.0,3.0,0,0.00,,FEW240,0.00,VWS V14.01,2013-07-04 02:28:00,
2013-07-03 20:29:00,32.0,36.9,29.73,West,264,0.0,3.0,0,0.00,,FEW240,0.00,VWS V14.01,2013-07-04 02:29:00,
2013-07-03 20:30:00,32.0,37.9,29.73,West,266,0.0,3.0,0,0.00,,FEW240,0.00,VWS V14.01,2013-07-04 02:30:00,
2013-07-03 20:31:00,32.0,37.9,29.73,SSW,212,0.0,0.0,0,0.00,,FEW240,0.00,VWS V14.01,2013-07-04 02:31:00,
2013-07-03 20:32:00,32.0,37.9,29.73,NW,316,0.0,0.0,0,0.00,,FEW240,0.00,VWS V14.01,2013-07-04 02:32:00,
2013-07-03 20:33:00,32.0,37.9,29.73,West,262,0.0,0.0,0,0.00,,FEW240,0.00,VWS V14.01,2013-07-04 02:33:00,
2013-07-03 20:34:00,32.0,37.9,29.73,WSW,248,0.0,0.0,0,0.00,,FEW240,0.00,VWS V14.01,2013-07-04 02:34:00,
2013-07-03 20:35:00,32.0,38.9,29.73,West,260,0.0,0.0,0,0.00,,FEW240,0.00,VWS V14.01,2013-07-04 02:35:00,
2013-07-03 20:36:00,32.0,37.9,29.73,WSW,252,0.0,1.0,0,0.00,,FEW240,0.00,VWS V14.01,2013-07-04 02:36:00,
2013-07-03 20:37:00,32.0,37.9,29.73,SW,221,0.0,1.0,0,0.00,,FEW240,0.00,VWS V14.01,2013-07-04 02:37:00,
2013-07-03 20:38:00,32.0,37.9,29.73,WNW,287,0.0,1.0,0,0.00,,FEW240,0.00,VWS V14.01,2013-07-04 02:38:00,
2013-07-03 20:39:00,32.0,37.9,29.73,WSW,248,0.0,1.0,0,0.00,,FEW240,0.00,VWS V14.01,2013-07-04 02:39:00,
2013-07-03 20:40:00,32.0,37.9,29.73,West,278,0.0,1.0,0,0.00,,FEW240,0.00,VWS V14.01,2013-07-04 02:40:00,
2013-07-03 20:41:00,32.0,37.9,29.73,SW,226,0.0,1.0,0,0.00,,FEW240,0.00,VWS V14.01,2013-07-04 02:41:00,
2013-07-03 20:42:00,32.0,36.9,29.73,West,265,0.0,1.0,0,0.00,,FEW240,0.00,VWS V14.01,2013-07-04 02:42:00,
2013-07-03 20:43:00,32.0,37.7,29.73,NW,311,0.0,1.0,0,0.00,,FEW240,0.00,VWS V14.01,2013-07-04 02:43:00,
2013-07-03 20:44:00,32.0,38.7,29.73,WNW,303,0.0,1.0,0,0.00,,FEW240,0.00,VWS V14.01,2013-07-04 02:44:00,
2013-07-03 20:45:00,32.0,39.6,29.73,NNW,330,0.0,1.0,0,0.00,,FEW240,0.00,VWS V14.01,2013-07-04 02:45:00,
2013-07-03 20:46:00,32.0,38.7,29.73,North,4,0.0,1.0,0,0.00,,FEW240,0.00,VWS V14.01,2013-07-04 02:46:00,
2013-07-03 20:47:00,32.0,39.6,29.73,North,360,0.0,1.0,0,0.00,,FEW240,0.00,VWS V14.01,2013-07-04 02:47:00,
2013-07-03 20:48:00,32.0,38.7,29.73,SW,219,0.0,1.0,0,0.00,,FEW240,0.00,VWS V14.01,2013-07-04 02:48:00,
2013-07-03 20:49:00,32.0,39.6,29.73,WNW,295,0.0,1.0,0,0.00,,FEW240,0.00,VWS V14.01,2013-07-04 02:49:00,
2013-07-03 20:50:00,32.0,37.7,29.73,SW,221,0.0,1.0,0,0.00,,FEW240,0.00,VWS V14.01,2013-07-04 02:50:00,
2013-07-03 20:51:00,32.0,37.7,29.73,WSW,254,0.0,1.0,0,0.00,,FEW240,0.00,VWS V14.01,2013-07-04 02:51:00,
2013-07-03 20:52:00,32.0,35.7,29.73,WSW,249,0.0,1.0,0,0.00,,FEW240,0.00,VWS V14.01,2013-07-04 02:52:00,
2013-07-03 20:53:00,32.0,36.7,29.73,West,278,0.0,1.0,0,0.00,,FEW240,0.00,VWS V14.01,2013-07-04 02:53:00,
2013-07-03 20:54:00,32.0,37.7,29.73,WSW,257,0.0,1.0,0,0.00,,FEW240,0.00,VWS V14.01,2013-07-04 02:54:00,
2013-07-03 20:55:00,32.0,37.7,29.74,SW,225,0.0,1.0,0,0.00,,FEW240,0.00,VWS V14.01,2013-07-04 02:55:00,
2013-07-03 20:56:00,32.0,37.7,29.74,NW,313,0.0,1.0,0,0.00,,FEW240,0.00,VWS V14.01,2013-07-04 02:56:00,
2013-07-03 20:57:00,32.0,37.7,29.74,WSW,257,0.0,1.0,0,0.00,,FEW240,0.00,VWS V14.01,2013-07-04 02:57:00,
2013-07-03 20:58:00,32.0,37.7,29.74,WSW,238,0.0,1.0,0,0.00,,FEW240,0.00,VWS V14.01,2013-07-04 02:58:00,
2013-07-03 20:59:00,32.0,38.5,29.74,WSW,238,0.0,1.0,0,0.00,,FEW240,0.00,VWS V14.01,2013-07-04 02:59:00,
2013-07-03 21:00:00,32.0,39.5,29.74,SW,231,0.0,1.0,0,0.00,,FEW240,0.00,VWS V14.01,2013-07-04 03:00:00,
2013-07-03 21:01:00,32.0,38.5,29.74,SW,229,0.0,0.0,0,0.00,,FEW240,0.00,VWS V14.01,2013-07-04 03:01:00,
2013-07-03 21:02:00,32.0,39.5,29.74,SW,229,0.0,0.0,0,0.00,,FEW240,0.00,VWS V14.01,2013-07-04 03:02:00,
2013-07-03 21:03:00,32.0,38.5,29.74,SW,231,0.0,0.0,0,0.00,,FEW240,0.00,VWS V14.01,2013-07-04 03:03:00,
2013-07-03 21:04:00,32.0,39.4,29.74,SW,231,0.0,0.0,0,0.00,,FEW240,0.00,VWS V14.01,2013-07-04 03:04:00,
2013-07-03 21:05:00,32.0,38.5,29.74,SW,231,0.0,0.0,0,0.00,,FEW240,0.00,VWS V14.01,2013-07-04 03:05:00,
2013-07-03 21:06:00,32.0,38.5,29.74,SW,231,0.0,0.0,0,0.00,,FEW240,0.00,VWS V14.01,2013-07-04 03:06:00,
2013-07-03 21:07:00,32.0,38.5,29.74,SW,231,0.0,0.0,0,0.00,,FEW240,0.00,VWS V14.01,2013-07-04 03:07:00,
2013-07-03 21:08:00,32.0,39.4,29.74,WSW,238,0.0,0.0,0,0.00,,FEW240,0.00,VWS V14.01,2013-07-04 03:08:00,
2013-07-03 21:09:00,32.0,38.5,29.74,WSW,248,0.0,0.0,0,0.00,,FEW240,0.00,VWS V14.01,2013-07-04 03:09:00,
2013-07-03 21:10:00,32.0,39.4,29.74,WNW,286,0.0,0.0,0,0.00,,FEW240,0.00,VWS V14.01,2013-07-04 03:10:00,
2013-07-03 21:11:00,32.0,38.3,29.74,SW,224,0.0,0.0,0,0.00,,FEW240,0.00,VWS V14.01,2013-07-04 03:11:00,
2013-07-03 21:12:00,32.0,38.3,29.74,SW,227,0.0,0.0,0,0.00,,FEW240,0.00,VWS V14.01,2013-07-04 03:12:00,
2013-07-03 21:13:00,32.0,39.2,29.74,SW,230,0.0,0.0,0,0.00,,FEW240,0.00,VWS V14.01,2013-07-04 03:13:00,
2013-07-03 21:14:00,32.0,39.2,29.74,SW,230,0.0,0.0,0,0.00,,FEW240,0.00,VWS V14.01,2013-07-04 03:14:00,
2013-07-03 21:15:00,32.0,39.2,29.74,SW,230,0.0,0.0,0,0.00,,FEW240,0.00,VWS V14.01,2013-07-04 03:15:00,
2013-07-03 21:16:00,32.0,39.2,29.74,SW,230,0.0,0.0,0,0.00,,FEW240,0.00,VWS V14.01,2013-07-04 03:16:00,
2013-07-03 21:17:00,32.0,38.1,29.74,SW,230,0.0,0.0,0,0.00,,FEW240,0.00,VWS V14.01,2013-07-04 03:17:00,
2013-07-03 21:18:00,32.0,39.0,29.74,SW,230,0.0,0.0,0,0.00,,FEW240,0.00,VWS V14.01,2013-07-04 03:18:00,
2013-07-03 21:19:00,32.0,38.1,29.74,SW,231,0.0,0.0,0,0.00,,FEW240,0.00,VWS V14.01,2013-07-04 03:19:00,
2013-07-03 21:20:00,32.0,38.1,29.74,NW,321,0.0,0.0,0,0.00,,FEW240,0.00,VWS V14.01,2013-07-04 03:20:00,
2013-07-03 21:21:00,32.0,38.1,29.74,NW,321,0.0,0.0,0,0.00,,FEW240,0.00,VWS V14.01,2013-07-04 03:21:00,
2013-07-03 21:22:00,32.0,39.0,29.74,WNW,288,0.0,0.0,0,0.00,,FEW240,0.00,VWS V14.01,2013-07-04 03:22:00,
2013-07-03 21:23:00,32.0,38.9,29.74,WNW,288,0.0,0.0,0,0.00,,FEW240,0.00,VWS V14.01,2013-07-04 03:23:00,
2013-07-03 21:24:00,32.0,37.9,29.74,WNW,288,0.0,0.0,0,0.00,,FEW240,0.00,VWS V14.01,2013-07-04 03:24:00,
2013-07-03 21:25:00,32.0,38.9,29.74,WNW,288,0.0,0.0,0,0.00,,FEW240,0.00,VWS V14.01,2013-07-04 03:25:00,
2013-07-03 21:26:00,32.0,37.8,29.74,WNW,288,0.0,0.0,0,0.00,,FEW240,0.00,VWS V14.01,2013-07-04 03:26:00,
2013-07-03 21:27:00,32.0,38.8,29.74,WNW,288,0.0,0.0,0,0.00,,FEW240,0.00,VWS V14.01,2013-07-04 03:27:00,
2013-07-03 21:28:00,32.0,38.6,29.74,WNW,288,0.0,0.0,0,0.00,,FEW240,0.00,VWS V14.01,2013-07-04 03:28:00,
2013-07-03 21:29:00,32.0,38.6,29.74,WNW,288,0.0,0.0,0,0.00,,FEW240,0.00,VWS V14.01,2013-07-04 03:29:00,
2013-07-03 21:30:00,32.0,37.5,29.74,WNW,289,0.0,0.0,0,0.00,,FEW240,0.00,VWS V14.01,2013-07-04 03:30:00,
2013-07-03 21:31:00,32.0,38.4,29.74,WNW,288,0.0,0.0,0,0.00,,FEW240,0.00,VWS V14.01,2013-07-04 03:31:00,
2013-07-03 21:32:00,32.0,38.3,29.74,SE,136,0.0,0.0,0,0.00,,FEW240,0.00,VWS V14.01,2013-07-04 03:32:00,
2013-07-03 21:33:00,32.0,38.2,29.74,SE,138,0.0,0.0,0,0.00,,FEW240,0.00,VWS V14.01,2013-07-04 03:33:00,